SCP
0 0 0 0 0 0 0 0 0 0 0 0 0 0 0 0 0 0 0 0 0 0 0 0 0 0 0 0 0 0 0 0 1 1 1 1 1 1 2 2 2 1 1 2
0 0 0 0 0 0 0 0 0 0 0 0 0 0 0 0 0 0 0 0 0 0 0 0 0 0 0 0 0 0 0 0 1 1 1 1 1 1 1 2 2 1 2 2
0 0 0 0 0 0 0 0 0 0 0 0 0 0 0 0 0 0 0 0 0 0 0 0 0 0 0 0 0 0 0 1 1 1 1 1 1 1 1 1 2 2 1 1
0 0 0 0 0 0 0 0 0 0 0 0 0 0 0 0 0 0 0 0 0 0 0 0 0 0 0 0 0 0 0 1 1 1 1 1 1 1 1 1 1 1 1 1
0 0 0 0 0 0 0 0 0 0 0 0 0 0 0 0 0 0 0 0 0 0 0 0 0 0 0 0 0 0 1 1 1 0 1 1 1 1 1 1 1 1 1 1
0 0 0 0 0 0 0 0 0 0 0 0 0 0 0 0 0 0 0 0 0 0 0 0 0 0 0 0 0 0 1 1 0 0 0 1 1 1 1 1 1 1 1 1
0 0 0 0 0 0 0 0 0 0 0 0 0 0 0 0 0 0 0 0 0 0 0 0 0 0 0 0 0 0 1 1 0 0 0 0 1 1 1 1 1 1 1 1
0 0 0 0 0 0 0 0 0 0 0 0 0 0 0 0 0 0 0 0 0 0 0 0 0 0 0 0 0 0 0 0 0 0 0 0 0 0 0 0 0 0 0 0
0 0 0 0 0 0 0 0 0 0 0 0 0 0 0 0 0 0 0 0 0 0 0 0 0 0 0 0 0 0 0 0 0 0 0 0 0 0 0 0 0 0 0 0
0 0 0 0 0 0 0 0 0 0 0 0 0 0 0 0 0 0 0 0 0 0 0 0 0 0 0 0 0 0 0 0 0 0 0 0 0 0 0 0 0 0 0 0
0 0 0 0 0 0 0 0 0 0 0 0 0 0 0 0 0 0 0 0 0 0 0 0 0 0 0 0 0 0 0 0 0 0 0 0 0 0 0 0 0 0 0 0
0 0 0 0 0 0 0 0 0 0 0 0 0 0 0 0 0 0 0 0 0 0 0 0 0 0 0 0 0 0 0 0 0 0 0 0 0 0 0 0 0 0 0 0
0 0 0 0 0 0 0 0 0 0 0 0 0 0 0 0 0 0 0 0 0 0 0 0 0 0 0 0 0 0 0 0 0 0 0 0 0 0 0 0 0 0 0 0
0 0 0 0 0 0 0 0 0 0 0 0 0 0 0 0 0 0 0 0 0 0 0 0 0 0 0 0 0 0 0 0 0 0 0 0 0 0 0 0 0 0 0 0
0 0 0 0 0 0 0 0 0 0 0 0 0 0 0 0 0 0 0 0 0 0 0 0 0 0 0 0 0 0 0 0 0 0 0 0 0 0 0 0 0 0 0 0
0 0 0 0 0 0 0 0 0 0 0 0 0 0 0 0 0 0 0 0 0 0 0 0 0 0 0 0 0 0 0 0 0 0 0 0 0 0 0 0 0 0 0 0
0 0 0 0 0 0 0 0 0 0 0 0 0 0 0 0 0 0 0 0 0 0 0 0 0 0 0 0 0 0 0 0 0 0 0 0 0 0 0 0 0 0 0 0
0 0 0 0 0 0 0 0 0 0 0 0 0 0 0 0 0 0 0 0 0 0 0 0 0 0 0 0 0 0 0 0 0 0 0 0 0 0 0 0 0 0 0 0
0 0 0 0 0 0 0 0 0 0 0 0 0 0 0 0 0 0 0 0 0 0 0 0 0 0 0 0 0 0 0 0 0 0 0 0 0 0 0 0 0 0 0 0
0 0 0 0 0 0 0 0 0 0 0 0 0 0 0 0 0 0 0 0 0 0 0 0 0 0 0 0 0 0 0 0 0 0 0 0 0 0 0 0 0 0 0 0
0 0 0 0 0 0 0 0 0 0 0 0 0 0 0 0 0 0 0 0 0 0 0 0 0 0 0 0 0 0 0 0 0 0 0 0 0 0 0 0 0 0 0 0
0 0 0 0 0 0 0 0 0 0 0 0 0 0 0 0 0 0 0 0 0 0 0 0 0 0 0 0 0 0 0 0 0 0 0 0 0 0 0 0 0 0 0 0
0 0 0 0 0 0 0 0 0 0 0 0 0 0 0 0 0 0 0 0 0 0 0 0 0 0 0 0 0 0 0 0 0 0 0 0 0 0 0 0 0 0 0 0
0 0 0 0 0 0 0 0 0 0 0 0 0 0 0 0 0 0 0 0 0 0 0 0 0 0 0 0 0 0 0 0 0 0 0 0 0 0 0 0 0 0 0 0
0 0 0 0 0 0 0 0 0 0 0 0 0 0 0 0 0 0 0 0 0 0 0 0 0 0 0 0 0 0 0 0 0 0 0 0 0 0 0 0 0 0 0 0
0 0 0 0 0 0 0 0 0 0 0 0 0 0 0 0 0 0 0 0 0 0 0 0 0 0 0 0 0 0 0 0 0 0 0 0 0 0 0 0 0 0 0 0
Wind_Speed
8 10 7 6 5 1 2 3 3 3 4 9 11 9 7 9 13 14 14 13 13 13 11 11 11 11 10 10 10 9 9 9 8 5 4 3 3 4 5 7 8 8 8 8
9 8 5 4 5 5 4 4 2 2 5 7 7 7 5 7 10 10 11 12 14 16 16 15 13 11 11 10 10 9 9 9 8 6 5 4 4 4 4 5 6 8 8 8
10 3 5 5 8 6 3 4 1 0 4 5 3 3 7 5 6 11 12 10 12 13 15 15 15 12 11 10 10 9 9 9 8 8 6 5 3 3 2 3 4 7 8 9
8 4 5 5 5 5 1 1 2 1 3 3 3 1 5 8 9 15 16 14 14 14 14 13 14 13 11 10 8 8 8 8 8 8 6 7 4 4 4 3 3 4 5 6
4 3 5 6 4 3 3 3 1 2 4 4 7 3 5 7 10 16 16 15 15 14 13 13 12 12 11 9 8 7 7 7 7 7 7 6 5 4 3 2 2 2 3 4
4 3 4 3 3 3 3 2 5 6 5 5 4 3 5 5 10 15 16 16 15 14 14 12 11 11 10 8 7 6 6 6 7 7 7 7 7 6 4 3 1 0 1 1
5 6 6 4 7 7 8 5 4 5 6 1 3 3 3 5 7 10 14 15 14 12 12 13 14 14 12 11 9 7 6 6 7 7 7 7 7 7 6 5 3 3 2 1
3 5 6 5 3 3 4 5 5 3 2 1 3 2 4 4 7 8 9 11 12 12 11 12 13 13 12 12 10 8 7 6 7 7 7 7 7 6 5 6 5 5 3 3
4 1 2 4 4 3 3 3 2 6 3 2 3 3 4 4 9 11 12 13 13 13 12 12 13 13 13 12 11 9 7 7 7 7 6 7 7 7 6 6 6 4 4 4
6 4 3 4 6 7 4 3 5 5 4 1 3 3 5 9 12 12 13 13 13 13 12 11 11 11 11 11 10 10 9 8 7 7 6 6 6 6 5 5 6 5 5 5
4 5 4 5 6 5 5 5 6 5 3 4 0 4 4 6 8 9 11 11 11 11 10 9 9 9 10 11 11 11 10 9 8 8 7 7 7 7 6 6 6 5 4 4
3 6 3 1 0 1 4 3 3 4 2 2 2 5 5 4 6 6 9 10 10 9 8 8 8 8 8 9 10 10 10 9 9 8 8 8 8 8 8 8 7 6 6 6
5 6 3 4 4 5 5 3 3 5 4 2 2 5 4 4 6 6 7 8 9 9 8 8 8 7 8 8 8 8 9 9 8 8 9 9 9 9 9 9 8 8 8 8
6 6 4 3 2 0 2 2 2 4 3 2 3 5 6 6 6 7 8 8 8 8 8 8 7 7 7 7 7 7 8 8 8 8 8 9 9 8 8 8 8 8 8 8
6 6 3 3 2 2 0 0 2 2 5 5 4 4 7 6 5 6 6 7 7 8 8 8 7 6 6 6 6 6 7 7 7 7 8 7 7 7 7 8 8 8 8 9
4 5 2 1 1 1 2 3 2 3 4 4 3 5 7 4 3 4 5 5 6 7 7 8 7 7 6 6 5 5 6 6 5 6 6 6 6 7 7 7 7 8 8 8
3 5 3 1 1 4 6 8 8 5 5 6 6 6 3 3 4 4 4 5 5 6 6 6 6 6 6 5 4 4 4 4 5 6 6 6 6 6 6 6 6 7 6 7
7 5 4 2 2 4 7 3 7 6 6 8 6 5 5 6 4 4 4 4 6 6 6 6 6 7 5 4 3 3 3 4 4 5 5 6 6 6 5 5 6 5 5 5
4 7 4 3 1 8 7 4 7 6 6 8 9 7 4 3 1 4 5 4 5 5 5 5 5 5 5 5 4 2 3 4 4 4 5 5 5 5 5 5 5 4 4 5
5 5 6 4 1 5 6 4 6 5 6 7 10 8 5 6 1 5 4 3 4 5 4 4 5 4 5 5 3 2 3 3 3 3 3 4 5 5 5 5 4 4 4 4
2 3 4 4 4 10 6 5 8 4 8 4 9 8 9 8 7 5 3 3 3 4 4 4 4 5 5 5 3 2 3 3 2 1 3 4 4 5 5 5 4 4 4 5
8 6 5 5 4 10 5 9 10 12 3 5 8 8 9 8 5 4 4 3 3 3 4 4 4 5 5 5 4 4 4 3 1 3 4 4 5 4 4 5 5 5 5 5
8 9 8 10 11 6 9 9 7 6 6 7 8 7 8 7 5 4 3 2 2 2 3 3 4 5 5 5 4 4 5 3 2 4 4 4 5 5 4 5 5 5 5 4
5 4 4 6 9 7 8 6 3 6 7 7 8 8 8 7 6 5 3 2 1 2 2 3 3 4 5 5 4 4 4 2 3 4 4 3 4 4 4 4 4 4 4 4
6 7 4 7 8 4 6 10 8 6 5 6 6 7 8 8 6 5 4 3 2 1 1 2 2 3 4 5 5 5 4 2 3 3 3 3 3 3 3 3 2 2 2 2
8 11 10 9 8 7 7 8 10 9 9 9 9 7 6 7 7 5 4 3 2 2 1 1 2 3 4 4 5 5 4 1 3 3 2 2 2 1 1 1 2 1 1 3
Wind_Direction
30 50 34 0 3 42 103 107 96 62 76 80 88 80 46 32 32 24 13 3 356 346 337 341 344 344 342 343 344 341 342 341 341 335 328 303 264 241 227 222 212 203 200 199
51 34 348 5 15 47 79 96 76 48 83 103 108 85 49 39 34 19 5 355 348 342 340 340 340 340 339 338 338 337 337 334 334 327 311 286 278 267 242 227 212 200 194 193
86 360 348 45 35 38 57 112 104 73 72 83 119 66 17 359 5 5 4 353 347 341 335 333 332 331 332 333 333 331 329 328 328 327 318 308 289 283 270 230 215 209 196 189
82 14 27 50 41 30 351 7 326 239 107 44 4 294 0 331 340 356 355 350 344 337 333 330 328 327 325 323 321 320 324 325 329 331 328 324 311 293 283 274 247 218 203 194
75 21 34 32 359 358 291 323 351 109 114 68 21 51 328 335 350 346 343 342 339 336 334 328 326 322 319 318 320 320 323 329 333 336 337 331 323 307 297 290 254 214 191 186
56 24 47 353 334 356 324 59 61 54 71 54 339 30 343 343 334 330 335 339 338 338 338 335 335 332 327 327 326 324 330 338 344 347 350 348 347 345 346 353 358 87 122 148
28 14 3 12 9 7 34 73 48 25 33 13 323 59 316 301 323 326 331 335 338 341 345 347 348 345 344 344 341 340 343 350 354 360 4 1 3 8 15 10 18 33 42 48
73 7 359 16 32 336 26 85 127 156 160 301 3 15 284 287 323 331 335 336 342 348 348 349 347 347 348 349 346 349 354 1 4 8 7 9 17 21 23 24 29 33 31 29
122 92 351 30 28 51 53 55 115 117 106 72 350 324 317 331 342 344 344 343 342 342 344 350 348 349 349 349 353 358 5 12 8 7 9 14 18 24 26 26 32 33 27 32
123 114 352 344 29 32 79 96 72 83 118 96 338 329 314 322 330 333 334 336 334 336 339 341 342 345 349 351 359 7 13 11 7 7 12 16 15 17 20 25 27 25 22 27
99 107 8 30 33 350 18 50 75 79 97 132 216 293 257 283 303 314 318 322 324 327 330 330 334 343 351 358 4 10 10 12 10 8 10 19 19 19 25 28 22 19 20 23
104 105 76 351 310 102 92 75 114 121 106 116 145 271 279 288 295 304 311 318 322 325 327 328 333 343 354 360 2 8 10 14 12 13 20 25 23 26 30 29 25 25 30 30
119 97 77 1 356 13 51 52 83 105 108 115 155 274 300 332 322 321 321 324 327 332 337 340 344 346 350 354 358 1 6 8 10 18 26 28 27 31 33 32 30 31 32 32
102 79 117 140 223 289 46 57 113 106 119 159 223 264 302 318 317 319 324 325 327 337 343 347 346 344 347 352 356 358 2 5 11 20 26 28 26 28 30 30 31 31 34 35
90 87 74 79 87 97 86 178 146 143 167 173 225 248 266 273 277 293 306 321 337 344 344 346 343 340 344 351 354 356 358 1 8 20 23 19 18 23 28 30 30 32 35 35
75 107 91 48 51 15 293 242 206 179 180 207 241 265 253 252 262 289 307 325 334 333 336 340 342 343 342 343 344 349 353 354 8 21 16 12 18 23 25 27 30 34 31 26
87 115 112 267 330 0 282 224 197 206 199 182 207 237 248 240 258 268 285 306 313 317 323 330 330 326 323 323 330 340 340 353 14 19 15 13 18 25 22 30 37 34 27 27
120 104 111 113 61 273 248 211 175 190 220 203 216 237 224 225 244 263 257 270 295 309 321 324 323 321 318 316 322 332 351 5 15 19 19 15 19 23 24 35 38 32 28 30
122 127 117 122 222 281 283 190 170 180 250 210 206 229 229 200 11 305 262 251 266 286 296 297 302 301 308 314 315 335 352 359 11 17 21 18 21 25 28 33 29 25 36 36
66 94 112 130 211 255 256 192 149 107 272 221 187 200 178 133 147 267 265 269 285 301 306 311 319 322 331 331 331 347 341 347 352 8 31 34 35 36 33 31 31 31 41 36
117 82 130 163 231 263 246 146 119 150 245 203 174 178 166 179 203 229 280 285 295 311 323 337 343 344 334 334 356 359 341 328 314 77 73 55 45 48 43 41 37 38 37 34
173 164 185 162 207 257 190 148 182 211 215 167 170 172 177 202 224 244 262 273 306 332 341 349 350 341 337 352 13 1 339 321 0 104 84 66 50 45 46 48 41 35 33 34
193 188 183 189 214 231 188 196 204 172 174 179 174 178 178 190 214 221 228 245 300 333 341 346 345 337 343 357 10 354 328 337 103 106 93 81 68 53 46 49 43 35 30 31
242 174 176 249 260 236 225 235 211 187 186 180 173 168 167 181 197 202 206 225 276 313 333 345 352 349 342 343 353 339 331 16 115 117 110 98 84 65 49 47 46 45 33 27
216 165 197 255 268 267 243 211 199 191 179 160 164 171 175 178 187 191 201 218 237 272 310 342 341 327 325 334 342 344 351 62 113 122 122 111 99 89 62 49 41 42 18 11
192 177 179 220 219 193 232 206 178 171 178 174 168 174 180 180 185 187 199 212 219 235 264 318 327 323 325 334 336 339 345 64 137 136 144 142 133 115 84 30 358 336 314 1